Location: Jetmore
(38.0845°N, 99.8935°W)
Time: 18:20:23
(UTC+00:00)

Envisat - Pass Details

Date: 26 September 2021
Orbit: 764 x 766 km, 98.2° (Epoch: 18 October)

Event Time Altitude Azimuth Distance (km) Brightness Sun altitude
Rises 11:42:05 0° 14° (NNE) 3,237 6.5 -10.5°
Reaches altitude 10° 11:44:24 10° 16° (NNE) 2,307 5.8 -10.0°
Maximum altitude 11:49:30 77° 103° (ESE) 788 3.2 -9.0°
Drops below altitude 10° 11:54:33 10° 189° (S) 2,291 5.3 -8.0°
Sets 11:56:50 0° 190° (S) 3,213 6.1 -7.6°
